Weather Roundup
Issued by NWS Springfield, MO

Home | Current Version | Previous Version | Text Only | Print | Product List | Glossary On
Versions: 1 2 3 4 5 6 7 8 9 10 11 12 13 14 15 16 17 18 19 20 21 22 23 24 25 26 27 28 29 30 31 32 33 34 35 36 37 38 39 40 41 42 43 44 45 46 47 48 49 50
000
NZUS99 KSGF 220759
HRRSGF

HOURLY WEATHER
NATIONAL WEATHER SERVICE SPRINGFIELD MO
300 AM CDT WED OCT 22 2014

......SGF CWA......

CITY           SKY/WX    TMP DP  RH WIND       PRES   REMARKS
SPRINGFIELD    CLEAR     53  44  71 SE9       30.15R
JOPLIN         PTCLDY    54  46  74 SE5       30.13R
WEST PLAINS    CLEAR     48  42  80 NE6       30.18S
ROLLA          CLEAR     46  41  82 E8        30.18R
OSAGE BEACH    CLEAR     46  41  81 E5        30.18S

......SURROUNDING SGF CWA......

CITY           SKY/WX    TMP DP  RH WIND       PRES   REMARKS
CHANUTE        CLEAR     56  49  77 E8        30.09S
PARSONS        CLEAR     61  53  75 VRB5      30.11R
COFFEYVILLE    CLEAR     56  52  86 CALM      30.09R
EMPORIA        CLEAR     55  49  80 SE8       30.08R
SILOAM SPRINGS MOCLDY    55  48  76 E5        30.14R
HARRISON AR    CLEAR     48  47  96 SE5       30.16R
NEAR YELLVILLE CLEAR     48  43  81 CALM      30.16S

......KANSAS AND MISSOURI......

CITY           SKY/WX    TMP DP  RH WIND       PRES   REMARKS
KANSAS CTY INT PTCLDY    54  45  71 SE12      30.13S
DOWNTOWN KC    CLOUDY    59  45  59 SE7G18    30.14R
COLUMBIA       CLEAR     46  40  79 E8        30.20R
SEDALIA        CLEAR     50  44  80 E6        30.18S
ST JOSEPH      PTCLDY    55  45  68 SE12      30.13S
ST LOUIS       NOT AVBL
SPIRIT OF STL  CLEAR     42  39  89 CALM      30.23R
KIRKSVILLE     CLEAR     43  40  89 E7        30.23R
WICHITA        PTCLDY    63  58  83 S9        30.05R
TOPEKA         CLEAR     55  46  71 E5        30.10R
OLATHE         CLOUDY    56  46  69 SE9       30.12S

......TENNESSEE......

CITY           SKY/WX    TMP DP  RH WIND       PRES   REMARKS
MEMPHIS        CLEAR     56  46  69 E6        30.14R
NASHVILLE      CLEAR     47  42  83 N5        30.16R

......ARKANSAS.......

CITY           SKY/WX    TMP DP  RH WIND       PRES   REMARKS
FAYETTEVILLE   PTCLDY    47  47 100 CALM      30.14S FOG
FT SMITH       CLEAR     58  56  93 NE6       30.11R
LITTLE ROCK    CLEAR     54  49  83 CALM      30.14R

......OKLAHOMA.......

CITY           SKY/WX    TMP DP  RH WIND       PRES   REMARKS
TULSA          CLEAR     61  59  93 CALM      30.07S
PONCA CITY     CLEAR     65  59  81 S7        30.06R
MCALESTER      CLOUDY    63  60  90 CALM      30.09S
OKLAHOMA CITY  CLEAR     59  56  89 S5        30.08R

......IOWA............

CITY           SKY/WX    TMP DP  RH WIND       PRES   REMARKS
DES MOINES     CLEAR     48  38  68 SE10      30.20R
QUAD CITIES    CLEAR     34  33  96 E3        30.28R

......ILLINOIS........

CITY           SKY/WX    TMP DP  RH WIND       PRES   REMARKS
QUINCY         CLEAR     43  39  86 E6        30.24R
CHICAGO        CLOUDY    47  39  74 CALM      30.27R




USA.gov is the U.S. government's official web portal to all federal, state and local government web resources and services.